Regional Weather Roundup
Issued by NWS Albany, NY

Current Version | Previous Version | Text Only | Print | Product List | Glossary On
Versions: 1 2 3 4 5 6 7 8 9 10 11 12 13 14 15 16 17 18 19 20 21 22 23 24 25 26 27
000
ASUS41 KALY 271710
RWRALY

NEW YORK STATE HOURLY WEATHER ROUNDUP
NATIONAL WEATHER SERVICE ALBANY NY
100 PM EDT TUE JUN 27 2017

NOTE: "FAIR" INDICATES FEW OR NO CLOUDS BELOW 12,000 FEET WITH NO
SIGNIFICANT WEATHER AND/OR NO OBSTRUCTIONS TO VISIBILITY.

NYZ032-033-038>043-046>054-057>066-NYZ062>081-082-084-271800-
EAST


CITY           SKY/WX    TMP DP  RH WIND       PRES   REMARKS
ALBANY         TSTM      63  56  78 SE5       29.95F
GLENS FALLS    CLOUDY    67  55  65 SE9       29.93F
POUGHKEEPSIE   SUNNY     73  54  51 SW9       29.94F
NEWBURGH       MOSUNNY   73  54  49 W9G16     29.96F
MONTGOMERY     MOSUNNY   75  53  46 S12       29.95F
WHITE PLAINS   PTSUNNY   71  57  61 VRB3      29.97F
ISLIP          PTSUNNY   73  61  65 SE6       29.98F
NEW YORK CITY  PTSUNNY   74  59  59 S13       29.97F
CENTRAL PARK   MOSUNNY   74  59  59 VRB3      30.00F
$$

NYZ005>009-017-018-044>046-055-056-271800-
CENTRAL


CITY           SKY/WX    TMP DP  RH WIND       PRES   REMARKS
FULTON         PTSUNNY   66  51  58 W12G20    29.93S
SYRACUSE       TSTM      63  51  65 W20G25    29.92F
ROME           PTSUNNY   65  54  67 S6        29.93F
ELMIRA         LGT RAIN  57  51  80 NW16G31   29.95S
BINGHAMTON     PTSUNNY   61  49  64 VRB6      29.95F
MONTICELLO     MOSUNNY   70  52  52 W9        29.99F
$$

NYZ026>034-041>043-087-271800-
NORTH


CITY           SKY/WX    TMP DP  RH WIND       PRES   REMARKS
WATERTOWN      PTSUNNY   61  56  83 W16       29.92S
FORT DRUM      NOT AVBL
OGDENSBURG     FAIR      60  57  91 SW3       29.92F
MASSENA        LGT RAIN  59  57  93 W7        29.91F
SARANAC LAKE   CLOUDY    55  50  83 W9G18     29.92S
PLATTSBURGH    TSTM      60  53  77 E10       29.89F
$$

NYZ001>004-010>016-019>021-085-271800-
WEST


CITY           SKY/WX    TMP DP  RH WIND       PRES   REMARKS
NIAGARA FALLS  PTSUNNY   65  51  60 SW7       29.95F
BUFFALO        PTSUNNY   60  51  72 SW15G22   29.96S
DUNKIRK        MOSUNNY   64  52  64 W14G24    30.00F
JAMESTOWN      PTSUNNY   59  45  58 W14G20    30.01F
WELLSVILLE     MOSUNNY   60  50  69 W14G20    30.01S
ROCHESTER      PTSUNNY   66  48  52 W14G20    29.95F
PENN YAN       CLOUDY    60  50  69 W9        29.97S
$$

             KEY
       WCI = WIND CHILL INDEX
       VSB = VISIBILITY
       HX  = HEAT INDEX
$$




USA.gov is the U.S. government's official web portal to all federal, state and local government web resources and services.